Other Public Products
Issued by NWS Grand Forks, ND

Home | Current Version | Previous Version | Graphics & Text | Print | Product List | Glossary On
Versions: 1 2 3 4 5 6 7 8 9 10 11 12 13 14 15 16 17 18 19 20 21 22 23 24 25 26 27 28 29 30 31 32 33 34 35 36 37 38 39 40 41 42 43 44 45 46 47 48 49 50
000
FPUS83 KFGF 250910
OPUFGF
PRAIRIE TO PINES WEATHER ROUNDUP
NATIONAL WEATHER SERVICE EASTERN NORTH DAKOTA/GRAND FORKS ND
300 AM CST SAT FEB 25 2017

 **SATELLITE DATA USED TO AUGMENT SKY COVER AT AUTOMATED STATIONS**
 *****  WEATHER ACROSS EASTERN NORTH DAKOTA  *****

CITY           SKY/WX    TMP DP  RH WIND       PRES   REMARKS
GRAND FORKS    MOCLDY    17   9  70 CALM      30.02F
GRAND FORKS AF MOCLDY    15  12  86 SW6       30.01F WCI   7
GRAND CITY NWS NOT AVBL
BUXTON         NOT AVBL
DEVILS LAKE    CLOUDY    16  13  88 SW6       29.96F WCI   7
FARGO          FAIR      15  12  88 CALM      30.04F
WAHPETON ARPT  FAIR      16  12  86 NW5       30.05F WCI   9
$$

 *****  WEATHER ACROSS CENTRAL AND WESTERN NORTH DAKOTA  *****

CITY           SKY/WX    TMP DP  RH WIND       PRES   REMARKS
JAMESTOWN      FAIR      14  11  87 CALM      29.99F
BISMARCK       CLOUDY    15  12  88 CALM      30.00F
MINOT          FLURRIES  25  20  81 SW13      29.93F WCI  14
MINOT AFB      NOT AVBL
GARRISON         N/A     18  14  84 CALM      29.96F
WILLISTON      CLOUDY    24  21  88 N5        29.97F WCI  18
DICKINSON      CLOUDY    22  16  78 SW10      29.92F WCI  11
HETTINGER      CLOUDY    20  14  77 CALM      29.97F
$$

 *****  OTHER OBSERVATIONS NORTHEAST NORTH DAKOTA  *****

CITY           SKY/WX    TMP DP  RH WIND       PRES   REMARKS
WALHALLA       NOT AVBL
LANGDON        NOT AVBL
CAVALIER       FLURRIES  16  14  93 S6        29.99F WCI   7
GRAFTON        PTSUNNY   14  14 100 S6        30.03F WCI   5
CANDO          NOT AVBL
FORT TOTTEN      N/A     15  14  96 CALM      29.95S
ROLLA          FAIR      16  14  93 W13       29.91F WCI   2
RUGBY            N/A     18  16  93 SW9       29.95F WCI   6
 ***** THE ABOVE OBSERVATIONS ARE NON NWS ARE NOT QUALITY
        CONTROLLED AND MAY MIS-REPORT RAIN FOR SNOW...
$$

 *****  OTHER OBSERVATIONS SOUTHEAST NORTH DAKOTA *****

CITY           SKY/WX    TMP DP  RH WIND       PRES   REMARKS
COOPERSTOWN    CLOUDY    16  14  93 SW6       29.99F WCI   7
VALLEY CITY    CLOUDY    18  18 100 W9        30.02F WCI   6
OAKES          NOT AVBL
GWINNER        FAIR      18  16  93 W6        30.04F WCI   9
SHEYENNE NWR     N/A     11   7  85 W3        29.95S
BUFFALO        NOT AVBL
WYNDMERE       NOT AVBL
 ***** THE ABOVE OBSERVATIONS ARE NON NWS ARE NOT QUALITY
       CONTROLLED AND MAY MIS-REPORT RAIN FOR SNOW...
$$

  *****  WEATHER ACROSS NORTHERN MINNESOTA  *****

CITY           SKY/WX    TMP DP  RH WIND       PRES   REMARKS
FLAG ISLAND    FAIR       3   0  85 W9        29.95F WCI -11
WARROAD        FAIR       3   0  85 W7        29.97F WCI  -9
ROSEAU         FAIR       7   1  78 W3        29.98F
HALLOCK        MOCLDY     9   7  92 S6        30.00F WCI  -1
THF RVR FALLS  FAIR       9   6  88 CALM      30.01F
HALSTAD          N/A     16  12  86 W2          N/A
FOSSTON        FAIR       9   5  85 NW6       29.99F WCI  -1
BAUDETTE       FAIR       3  -2  79 W6        29.94F WCI  -8
WASKISH        FAIR       7   1  78 NW7       29.94F WCI  -5
CROOKSTON      MOCLDY    16  10  79 W5        30.04S WCI   9
$$
  *****  WEATHER ACROSS CENTRAL AND WEST MINNESOTA  *****

CITY           SKY/WX    TMP DP  RH WIND       PRES   REMARKS
BEMIDJI        FAIR       6   2  82 NW9       29.95S WCI  -8
PARK RAPIDS    FAIR       9  -1  64 NW8       29.94F WCI  -3
WADENA         FAIR      10   5  79 NW9       29.95F WCI  -2
DETROIT LAKES  FAIR      14   9  79 NW9       30.00S WCI   2
MOORHEAD       FAIR      16  12  86 NW3       30.05F
FERGUS FALLS   FAIR      14   9  79 NW10      30.07S WCI   1
ELBOW LAKE     FAIR      15   9  76 W14       30.01S WCI   0
MORRIS MN      FAIR      16  10  79 NW14      30.01S WCI   1
STAPLES        FAIR      10   3  72 NW13      29.95S WCI  -5
WHEATON        FAIR      16  12  86 W7        30.06F WCI   6
$$
  *****  WEATHER ELSEWHERE ACROSS MINNESOTA  *****

CITY           SKY/WX    TMP DP  RH WIND       PRES   REMARKS
DULUTH         FLURRIES  10   4  76 NW14      29.77F WCI  -6
INTRNTL FALLS  FAIR       4  -1  80 NW6       29.90F WCI  -7
ELY            CLOUDY     7   1  78 NW7G22    29.79F WCI  -5
CLOQUET        FAIR       9   1  72 NW15      29.82S WCI  -8
BRAINERD       FAIR      11   3  70 NW10      29.93F WCI  -3
HIBBING        FAIR       6   1  80 NW16      29.84F WCI -12
ALEXANDRIA     FAIR      13   5  70 NW12      29.97S WCI  -1
SAINT CLOUD    FAIR      14   6  70 N16G22    29.93F WCI  -2
MINNEAPOLIS    FAIR      17   3  54 N14       29.90S WCI   3
$$

  *****  WEATHER ACROSS SOUTH DAKOTA  *****

CITY           SKY/WX    TMP DP  RH WIND       PRES   REMARKS
SIOUX FALLS    FAIR      16  13  88 NW12      30.05F WCI   3
BROOKINGS      FAIR      15  12  88 NW8       30.03S WCI   4
WATERTOWN      FAIR      14  11  87 NW7       30.02F WCI   4
HURON          FAIR      13  12  96 W6        30.09F WCI   4
SISSETON         N/A     17  13  84 NW9       30.04F WCI   6
ABERDEEN       FAIR      12   8  84 SW6       30.06F WCI   3
MITCHELL       FAIR      18  14  84 W7        30.11F WCI   9
PIERRE         CLOUDY    21  15  78 SW3       30.06F
MOBRIDGE       CLOUDY    23  15  71 S5        30.01F WCI  17
RAPID CITY     MOCLDY    10   7  87 NW3       29.97F
$$

  *****  SOME WEATHER IN NEARBY STATES *****

CITY           SKY/WX    TMP DP  RH WIND       PRES   REMARKS
GLASGOW MT     FOG       20  19  96 NW5       29.99F VSB 1/4 WCI  13
GREAT FALLS MT FAIR      18  14  84 SW9       29.98F WCI   7
CHEYENNE WY    FAIR      12   3  67 W10       29.91F WCI  -1
SCOTTSBLUFF NE FAIR       3  -1  83 CALM      30.00F
OMAHA NE       FAIR      19  12  74 NW15      30.09R WCI   5
DES MOINES IA  MOCLDY    20  13  74 NW20      29.98R WCI   4
DAVENPORT IA   CLOUDY    22  17  81 NW24G30   29.78R HAZE    WCI   5
CHICAGO IL     FLURRIES  30  25  81 W12       29.61R WCI  20
EAU CLAIRE WI  FAIR      14   4  64 NW8       29.78S WCI   3
LA CROSSE WI   CLOUDY    22  13  68 NW18      29.78F WCI   7
$$

  *****  SOME NATIONAL WEATHER *****

CITY           SKY/WX    TMP DP  RH WIND       PRES   REMARKS
LA GUARDIA NY  CLOUDY    53  50  89 SE5       29.80F
RALEIGH NC     FAIR      59  56  89 S5        29.77F
ATLANTA GA     FAIR      63  58  83 SW8       29.76F
NEW ORLEANS LA FAIR      66  59  78 N17G26    29.90R
OKLAHOMA CITY  FAIR      28  19  69 N14       30.18F WCI  17
ALBUQUERQUE NM FAIR      31  -1  25 NW3       30.09F
SALT LAKE CITY FAIR      22  12  65 SE8       30.13S WCI  12
LOS ANGELES CA FAIR      47  40  76 E5        30.17F
BOISE ID       FAIR      25  16  68 SE7       30.15S WCI  17
SEATTLE WA     CLOUDY    38  29  70 E5        30.24S
$$

*** WEATHER ACROSS MANITOBA...SASKATCHEWAN AND ONTARIO ***
                ***ONTARIO***

CITY           SKY/WX    TMP DP  RH WIND       PRES   REMARKS
GERALDTON      LGT SNOW   5   0  78 N9        29.69F WCI  -9
THUNDER BAY    FLURRIES  12   7  79 NW14G29   29.72F WCI  -3
SIOUX LOOKOUT  FLURRIES   9   3  78 NW8       29.83F WCI  -4
TORONTO        LGT RAIN  39  39 100 SE8       29.46F FOG
BIG TROUT LK   CLEAR    -13 -18  77 N5        29.90F WCI -25
PICKLE LAKE    NOT AVBL
DRYDEN         CLOUDY     7   3  85 W6        29.85F WCI  -3
KENORA         CLEAR      3  -2  78 NW8       29.90F WCI -10
$$
                *** MANITOBA***

CITY           SKY/WX    TMP DP  RH WIND       PRES   REMARKS
BRANDON        PTCLDY     3   0  85 W6        29.91F WCI  -8
DAUPHIN        FLURRIES  19  14  79 N9        29.93F WCI   9
ISLAND LAKE    FLURRIES  -4  -8  84 W3        29.92F
PILOT MOUND      N/A     10   7  85 SW5         N/A  WCI   2
THE PAS        FLURRIES   7   1  78 W13       29.96F WCI  -9
THOMPSON       CLEAR    -24 -29  76 W2        29.94F
WINNIPEG       MOCLDY    10   7  85 S5        29.97F WCI   2
LYNN LAKE      PTCLDY    -8 -11  84 W7        29.92F WCI -22
CHURCHILL      MOCLDY   -13 -17  84 S7        30.01F WCI -29
GILLAM         CLEAR    -17 -22  76 NE3       29.96F
$$
                ***SASKATCHEWAN***

CITY           SKY/WX    TMP DP  RH WIND       PRES   REMARKS
ESTEVAN        FOG       19  18  93 NW12      29.95F VSB 1/4 WCI   7
KINDERSLEY     PTCLDY     9   3  78 N5        30.02F WCI   0
LLOYDMINSTER   CLOUDY     1  -2  85 SW7       30.01F WCI -11
PRINCE ALBERT  FLURRIES   5  -6  61 NW14G21   30.05F WCI -12
REGINA         FLURRIES  16  12  86 N13       29.99F WCI   2
YORKTON        FLURRIES  16  12  86 N17       29.93S WC


USA.gov is the U.S. government's official web portal to all federal, state and local government web resources and services.